Progress Software Net Profit Margin 2006-2021 | PRGS

Progress Software net profit margin from 2006 to 2021. Net profit margin can be defined as net Income as a portion of total sales revenue.
Progress Software Net Profit Margin Historical Data
Date TTM Revenue TTM Net Income Net Margin
2021-05-31 $0.48B $0.08B 15.79%
2021-02-28 $0.45B $0.08B 17.22%
2020-11-30 $0.44B $0.08B 18.10%
2020-08-31 $0.44B $0.06B 13.04%
2020-05-31 $0.43B $0.05B 10.83%
2020-02-29 $0.43B $0.04B 8.76%
2019-11-30 $0.41B $0.03B 6.28%
2019-08-31 $0.40B $0.04B 10.13%
2019-05-31 $0.38B $0.04B 10.50%
2019-02-28 $0.37B $0.05B 12.03%
2018-11-30 $0.38B $0.05B 13.19%
2018-08-31 $0.39B $0.05B 12.60%
2018-05-31 $0.39B $0.05B 11.70%
2018-02-28 $0.39B $0.04B 10.94%
2017-11-30 $0.39B $0.03B 7.20%
2017-08-31 $0.40B $-0.05B -13.53%
2017-05-31 $0.40B $-0.06B -14.11%
2017-02-28 $0.41B $-0.06B -14.74%
2016-11-30 $0.41B $-0.06B -13.83%
2016-08-31 $0.40B $0.01B 2.25%
2016-05-31 $0.39B $-0.00B -0.76%
2016-02-29 $0.39B $-0.00B -1.04%
2015-11-30 $0.38B $-0.01B -2.12%
2015-08-31 $0.36B $0.02B 4.13%
2015-05-31 $0.35B $0.03B 8.65%
2015-02-28 $0.34B $0.04B 10.91%
2014-11-30 $0.33B $0.05B 14.71%
2014-08-31 $0.33B $0.05B 15.34%
2014-05-31 $0.33B $0.06B 19.69%
2014-02-28 $0.33B $0.06B 16.87%
2013-11-30 $0.34B $0.08B 22.39%
2013-08-31 $0.33B $0.10B 29.45%
2013-05-31 $0.32B $0.08B 23.91%
2013-02-28 $0.31B $0.07B 22.61%
2012-11-30 $0.32B $0.05B 14.83%
2012-08-31 $0.33B $0.02B 6.99%
2012-05-31 $0.38B $0.03B 6.84%
2012-02-29 $0.44B $0.05B 10.43%
2011-11-30 $0.49B $0.06B 12.30%
2011-08-31 $0.54B $0.07B 12.80%
2011-05-31 $0.54B $0.07B 12.71%
2011-02-28 $0.54B $0.07B 13.06%
2010-11-30 $0.53B $0.05B 9.06%
2010-08-31 $0.52B $0.04B 8.43%
2010-05-31 $0.51B $0.04B 8.01%
2010-02-28 $0.50B $0.03B 5.79%
2009-11-30 $0.49B $0.03B 6.88%
2009-08-31 $0.50B $0.02B 4.64%
2009-05-31 $0.50B $0.03B 5.95%
2009-02-28 $0.52B $0.04B 7.18%
2008-11-30 $0.52B $0.05B 8.91%
2008-08-31 $0.51B $0.05B 10.12%
2008-05-31 $0.51B $0.05B 10.22%
2008-02-29 $0.50B $0.05B 9.18%
2007-11-30 $0.49B $0.04B 8.50%
2007-08-31 $0.48B $0.04B 7.72%
2007-05-31 $0.47B $0.03B 7.05%
2007-02-28 $0.46B $0.03B 7.21%
2006-11-30 $0.45B $0.03B 6.71%
2006-08-31 $0.43B $0.04B 8.31%
2006-05-31 $0.42B $0.04B 9.50%
2006-02-28 $0.41B $0.04B 10.71%
2005-11-30 $0.41B $0.05B 11.60%
Sector Industry Market Cap Revenue
Computer and Technology Computer Software $2.012B $0.442B
Progress offers the leading platform for developing and deploying mission-critical business applications. Progress empowers enterprises and ISVs to build and deliver cognitive-first applications that harness big data to derive business insights and competitive advantage. Progress offers leading technologies for easily building powerful user interfaces across any type of device, a reliable, scalable and secure backend platform to deploy modern applications, leading data connectivity to all sources, and award-winning predictive analytics that brings the power of machine learning to any organization.
Stock Name Country Market Cap PE Ratio
Microsoft (MSFT) United States $2157.676B 36.03
Adobe (ADBE) United States $295.978B 63.79
Oracle (ORCL) United States $250.554B 21.47
Salesforce, Inc (CRM) United States $223.286B 69.09
SAP SE (SAP) Germany $178.796B 22.74
Intuit (INTU) United States $144.877B 69.03
Dassault Systemes SA (DASTY) France $74.871B 65.78
Autodesk (ADSK) United States $72.079B 124.10
VMware (VMW) United States $65.902B 30.67
Synopsys (SNPS) United States $44.125B 56.15
Cadence Design Systems (CDNS) United States $41.475B 58.08
ANSYS (ANSS) United States $32.318B 66.46
SS&C Technologies Holdings (SSNC) United States $19.574B 17.51
Nuance Communications (NUAN) United States $15.665B 144.10
PTC (PTC) United States $15.473B 54.27
Open Text (OTEX) Canada $14.082B 15.96
Citrix Systems (CTXS) United States $12.796B 30.12
Manhattan Associates (MANH) United States $10.385B 110.68
Pegasystems (PEGA) United States $10.344B 0.00
Aspen Technology (AZPN) United States $9.865B 43.17
Trend Micro (TMICY) Japan $7.431B 29.02
Descartes Systems Group (DSGX) Canada $6.167B 107.18
MicroStrategy (MSTR) United States $6.092B 113.03
ACI Worldwide (ACIW) United States $3.959B 21.48
CommVault Systems (CVLT) United States $3.519B 91.32
Blackbaud (BLKB) United States $3.466B 59.16
Cornerstone OnDemand (CSOD) United States $3.229B 21.68
Verint Systems (VRNT) United States $2.764B 16.55
PROS Holdings (PRO) United States $1.868B 0.00
Bottomline Technologies (EPAY) United States $1.826B 143.68
QAD (QADB) United States $1.781B 140.98
Avid Technology (AVID) United States $1.634B 41.08
Sapiens (SPNS) Israel $1.374B 25.08
Canaan (CAN) China $1.237B 0.00
OptimizeRx (OPRX) United States $0.974B 2789.00
Simulations Plus (SLP) United States $0.945B 82.33
Magic Software Enterprises (MGIC) Israel $0.851B 22.24
American Software (AMSWA) United States $0.728B 85.58
Icad Inc (ICAD) United States $0.363B 0.00
Smith Micro Software (SMSI) United States $0.278B 65.00
ServiceSource (SREV) United States $0.155B 0.00
Park City (PCYG) United States $0.109B 51.00
Neonode (NEON) Sweden $0.060B 0.00
NetSol Technologies (NTWK) United States $0.053B 21.18
BSQUARE (BSQR) United States $0.039B 0.00
GSE Systems (GVP) United States $0.028B 0.00
Duolingo (DUOL) United States $0.000B 0.00